Weather History for Kiruna, Sweden

Change the Weather History Date:

Thursday, September 26, 2013

  Actual Average Record
Temperature  
Mean Temperature 34 °F -  
Max Temperature 39 °F - - ()
Min Temperature 30 °F - - ()
Degree Days  
Heating Degree Days 30    
Moisture  
Dew Point 32 °F    
Average Humidity 90    
Maximum Humidity 100    
Minimum Humidity 75    
Precipitation  
Precipitation 0.00 in - - ()
Sea Level Pressure  
Sea Level Pressure 29.93 in    
Wind  
Wind Speed 11 mph ()    
Max Wind Speed 20 mph    
Max Gust Speed 29 mph    
Visibility 5.5 miles    
Events Rain , Snow    
T = Trace of Precipitation, MM = Missing Value Source: Averaged Metar Reports

Daily Weather History Graph

Daily Weather History Graph

Search for Another Location

Airport:

Trip Planner

Search our weather history database for the weather conditions in past years. The results will help you decide how hot, cold, wet, or windy it might be!

Date:

Astronomy

Sep. 26, 2013 Rise Set
Actual Time 6:33 AM CEST 6:24 PM CEST
Civil Twilight 5:38 AM CEST 7:18 PM CEST
Nautical Twilight 4:30 AM CEST 8:26 PM CEST
Astronomical Twilight 3:10 AM CEST 9:45 PM CEST
Moon 8:17 PM CEST (9/26) 4:03 PM CEST (9/26)
Length of Visible Light 13h 40m
Length of Day
11h 50m
Waning Gibbous, 57% of the Moon is Illuminated
Sep 26
Waning Gibbous
Sep 27
Last Quarter
Oct 5
New
Oct 12
First Quarter
Oct 19
Full

Hourly Weather History & Observations

Time (CEST) Temp. Windchill Dew Point Humidity Pressure Visibility Wind Dir Wind Speed Gust Speed Precip Events Conditions
12:20 AM 33.8 °F 27.7 °F 30.2 °F 87% 30.01 in 6.2 mi North 6.9 mph - N/A   Mostly Cloudy
12:50 AM 32.0 °F 25.6 °F 30.2 °F 93% 30.01 in 6.2 mi NNW 6.9 mph - N/A   Unknown
1:20 AM 30.2 °F 24.3 °F 30.2 °F 100% 30.01 in 6.2 mi North 5.8 mph - N/A   Unknown
1:50 AM 30.2 °F 23.4 °F 30.2 °F 100% 30.01 in 6.2 mi NNW 6.9 mph - N/A   Unknown
2:20 AM 30.2 °F 24.3 °F 28.4 °F 93% 29.98 in 6.2 mi North 5.8 mph - N/A   Unknown
2:50 AM 30.2 °F 23.4 °F 28.4 °F 93% 29.98 in 6.2 mi North 6.9 mph - N/A   Unknown
3:20 AM 30.2 °F 22.6 °F 28.4 °F 93% 29.98 in 6.2 mi North 8.1 mph - N/A   Unknown
3:50 AM 32.0 °F 24.2 °F 28.4 °F 87% 29.98 in 6.2 mi North 9.2 mph - N/A   Partly Cloudy
4:20 AM 30.2 °F 23.4 °F 26.6 °F 86% 29.98 in 6.2 mi North 6.9 mph - N/A   Partly Cloudy
4:50 AM 32.0 °F 23.0 °F 26.6 °F 80% 29.98 in 6.2 mi North 11.5 mph - N/A   Scattered Clouds
5:20 AM 32.0 °F 22.5 °F 26.6 °F 80% 29.98 in 6.2 mi North 12.7 mph - N/A   Mostly Cloudy
5:50 AM 32.0 °F 21.6 °F 26.6 °F 80% 29.95 in 6.2 mi North 15.0 mph - N/A   Mostly Cloudy
6:20 AM 33.8 °F 24.3 °F 26.6 °F 75% 29.95 in 6.2 mi North 13.8 mph - N/A   Mostly Cloudy
6:50 AM 33.8 °F 23.5 °F 26.6 °F 75% 29.95 in 6.2 mi North 16.1 mph - N/A   Mostly Cloudy
7:20 AM 33.8 °F 23.9 °F 28.4 °F 81% 29.95 in 6.2 mi North 15.0 mph - N/A   Mostly Cloudy
7:50 AM 33.8 °F 23.5 °F 28.4 °F 81% 29.95 in 6.2 mi North 16.1 mph - N/A Snow Snow Showers
8:20 AM 33.8 °F 23.2 °F 30.2 °F 87% 29.92 in - North 17.3 mph - N/A Snow Light Snow
8:50 AM 33.8 °F 23.2 °F 30.2 °F 87% 29.92 in 3.7 mi North 17.3 mph - N/A Snow Light Snow
9:20 AM 33.8 °F 22.5 °F 30.2 °F 87% 29.92 in - North 19.6 mph - N/A Snow Light Snow
9:50 AM 33.8 °F 22.8 °F 32.0 °F 93% 29.92 in 1.5 mi North 18.4 mph - N/A Snow Light Snow
10:20 AM 33.8 °F 22.8 °F 32.0 °F 93% 29.92 in 1.8 mi North 18.4 mph - N/A Snow Light Snow
10:50 AM 33.8 °F 23.2 °F 33.8 °F 100% 29.92 in - North 17.3 mph - N/A Snow Light Snow
11:20 AM 33.8 °F 23.2 °F 33.8 °F 100% 29.92 in 3.1 mi North 17.3 mph - N/A Snow Light Snow
11:50 AM 35.6 °F 25.5 °F 33.8 °F 93% 29.92 in 4.3 mi North 17.3 mph - N/A Rain , Snow Light Rain
12:20 PM 35.6 °F 25.9 °F 33.8 °F 93% 29.92 in 6.2 mi North 16.1 mph - N/A Rain Light Rain
12:50 PM 35.6 °F 26.2 °F 33.8 °F 93% 29.92 in 4.3 mi North 15.0 mph - N/A Rain Light Rain
1:20 PM 35.6 °F 25.5 °F 33.8 °F 93% 29.92 in - North 17.3 mph - N/A Rain Light Rain
1:50 PM 37.4 °F 28.2 °F 33.8 °F 87% 29.92 in 6.2 mi North 16.1 mph - N/A   Overcast
2:20 PM 37.4 °F 28.2 °F 35.6 °F 93% 29.92 in 6.2 mi North 16.1 mph 28.8 mph N/A   Overcast
2:50 PM 37.4 °F 27.8 °F 35.6 °F 93% 29.92 in 6.2 mi North 17.3 mph - N/A   Overcast
3:20 PM 37.4 °F 28.2 °F 35.6 °F 93% 29.89 in 5.0 mi North 16.1 mph - N/A   Drizzle
3:50 PM 37.4 °F 27.5 °F 35.6 °F 93% 29.89 in 6.2 mi North 18.4 mph - N/A   Drizzle
4:20 PM 37.4 °F 27.8 °F 35.6 °F 93% 29.89 in 4.3 mi North 17.3 mph - N/A Rain Light Rain
4:50 PM 37.4 °F 27.5 °F 35.6 °F 93% 29.92 in 6.2 mi North 18.4 mph - N/A Rain Light Rain
5:20 PM 37.4 °F 27.8 °F 35.6 °F 93% 29.89 in 6.2 mi North 17.3 mph - N/A   Light Drizzle
5:50 PM 37.4 °F 28.5 °F 35.6 °F 93% 29.92 in 6.2 mi North 15.0 mph - N/A   Mostly Cloudy
6:20 PM 37.4 °F 28.2 °F 35.6 °F 93% 29.92 in 6.2 mi North 16.1 mph - N/A   Light Drizzle
6:50 PM 37.4 °F 28.5 °F 35.6 °F 93% 29.92 in 6.2 mi North 15.0 mph - N/A   Light Drizzle
7:20 PM 37.4 °F 28.5 °F 35.6 °F 93% 29.92 in 6.2 mi North 15.0 mph - N/A   Light Drizzle
7:50 PM 39.2 °F 31.2 °F 35.6 °F 87% 29.92 in 6.2 mi North 13.8 mph - N/A   Light Drizzle
8:20 PM 37.4 °F 28.9 °F 35.6 °F 93% 29.92 in 6.2 mi North 13.8 mph - N/A   Overcast
8:50 PM 39.2 °F 30.5 °F 35.6 °F 87% 29.92 in 6.2 mi North 16.1 mph - N/A   Overcast
9:20 PM 37.4 °F 28.5 °F 35.6 °F 93% 29.92 in 5.6 mi North 15.0 mph - N/A Rain Light Rain
9:50 PM 37.4 °F 28.2 °F 35.6 °F 93% 29.89 in 4.3 mi North 16.1 mph - N/A   Drizzle
10:20 PM 37.4 °F 28.2 °F 35.6 °F 93% 29.89 in 4.3 mi North 16.1 mph - N/A   Drizzle
10:50 PM 37.4 °F 28.2 °F 35.6 °F 93% 29.89 in 6.2 mi North 16.1 mph - N/A   Drizzle
11:20 PM 37.4 °F 28.5 °F 35.6 °F 93% 29.92 in 4.3 mi North 15.0 mph - N/A Rain Light Rain
11:50 PM 37.4 °F 28.2 °F 35.6 °F 93% 29.89 in 3.7 mi North 16.1 mph - N/A   Drizzle